Content
SEND FEEDBACK

Daily
Averages
Monthly
Summary
United States of America

SWAN LAKE, MISSISSIPPI


Home > North America > United States > Mississippi
Elevation: 15 feet     Latitude: 33 53N     Longitude: 091 19W

WEATHER
 
SELECT A DAY
Number of Records: 166,590;   Date Range: 10/22/98 - 7/23/14
 
SHARE

PRINT THIS DATA

[ ← Previous Day ]
WEATHER ALMANAC - JANUARY 23, 2013
[ Next Day → ]
[ °C ]   °F
Weather ElementAverageHighLow
Temperature54.1 °F69.1 °F (3:53 pm)42.1 °F (1:53 am)
Dewpoint41.1 °F50 °F (5:53 pm)32 °F (1:53 am)
Humidity62 %72 % (6:53 pm)49 % (2:53 pm)
Barometer30.27 in30.34 in (9:53 am)30.19 in (4:53 pm)
Wind Speed4.7 mph13.8 mph (12:53 pm)
Wind Gust19.6 mph (12:53 pm)
Weather ElementAverage
Visibility10 mi
Wind DirectionESE (128.6 °)

Weather ElementTotal
Precipitation---
Heating Degree Days9.4 (Base 65)
Growing Degree Days5.6 (Base 50)
Averaged from 21 records on January 23, 2013
WEATHER CONDITIONS BREAKOUT
WIND DIRECTION BREAKOUT
WEATHER BY HOUR - JANUARY 23, 2013
[ °C ]   °F
Local TimeTemperatureDewpointHumidityBarometerVisibilityWind DirectionWind SpeedGust SpeedPrecipitationEventsConditions
1:53 AM42.1 °F32.0 °F67 %30.32 in10.0 miEast (100°)3.5 mphOvercast
2:53 AM42.1 °F33.1 °F70 %30.33 in10.0 miENE (60°)3.5 mphOvercast
3:53 AM43.0 °F32.0 °F65 %30.32 in10.0 miCalmOvercast
4:53 AM43.0 °F32.0 °F65 %30.31 in10.0 miESE (110°)3.5 mphOvercast
5:53 AM43.0 °F33.1 °F68 %30.33 in10.0 miNE (50°)3.5 mphOvercast
6:53 AM43.0 °F33.1 °F68 %30.33 in10.0 miCalmOvercast
7:53 AM43.0 °F33.1 °F68 %30.32 in10.0 miSE (140°)3.5 mphMostly Cloudy
8:53 AM45.0 °F33.1 °F63 %30.32 in10.0 miVariable3.5 mphOvercast
9:53 AM46.9 °F35.1 °F63 %30.34 in10.0 miCalmOvercast
10:53 AM53.1 °F39.0 °F59 %30.33 in10.0 miSW (220°)6.9 mphOvercast
11:53 AM59.0 °F43.0 °F55 %30.29 in10.0 miWSW (240°)9.2 mph18.4 mphOvercast
12:53 PM64.0 °F46.9 °F54 %30.25 in10.0 miWest (260°)13.8 mph19.6 mphClear
1:53 PM66.0 °F46.9 °F50 %30.22 in10.0 miWSW (250°)8.1 mphClear
2:53 PM68.0 °F48.0 °F49 %30.20 in10.0 miWSW (240°)8.1 mphScattered Clouds
3:53 PM69.1 °F48.9 °F49 %30.20 in10.0 miVariable5.8 mphClear
4:53 PM68.0 °F48.9 °F50 %30.19 in10.0 miSW (230°)3.5 mphClear
5:53 PM61.0 °F50.0 °F67 %30.19 in10.0 miSouth (180°)3.5 mphClear
6:53 PM59.0 °F50.0 °F72 %30.19 in10.0 miSouth (170°)3.5 mphClear
7:53 PM59.0 °F48.0 °F67 %30.19 in10.0 miCalmClear
9:53 PM60.1 °F48.9 °F67 %30.20 in10.0 miSW (220°)8.1 mphClear
11:53 PM59.0 °F48.0 °F67 %30.21 in10.0 miSW (230°)8.1 mphClear
Hourly data recorded from KLLQ, located miles away from Swan Lake, Mississippi







STORIES FROM OUR PARTNERS